Regional Weather Roundup
Issued by NWS Green Bay, WI

Home | Current Version | Previous Version | Text Only | Print | Product List | Glossary On
Versions: 1 2 3 4 5 6 7 8 9 10 11 12 13 14 15 16 17 18 19 20 21 22 23 24 25 26 27 28 29 30 31 32 33 34 35 36 37 38 39 40 41 42 43 44 45 46 47 48 49 50
000
ASUS43 KGRB 271010
RWRGRB

NORTH-CENTRAL AND NORTHEAST WISCONSIN REGIONAL WEATHER ROUNDUP
NATIONAL WEATHER SERVICE GREEN BAY WI
400 AM CST TUE JAN 27 2015

WIZ005-009-010>012-018-019-271100-
NORTH CENTRAL WISCONSIN

CITY           SKY/WX    TMP DP  RH WIND       PRES   REMARKS
IRONWOOD       CLOUDY    19  18  93 CALM      30.02R
MANITOWISH WTR CLOUDY    19  18  96 CALM      30.01R
ARBOR VITAE    CLOUDY    22  19  91 CALM      30.02R
EAGLE RIVER    CLOUDY    20  16  86 SE3       30.01R
LAND O LAKES   CLOUDY    20  18  92 CALM      30.03R
RHINELANDER    CLOUDY    20  17  88 CALM      30.02R
PHILLIPS       CLOUDY    20  19  95 CALM      30.02R
ANTIGO         CLOUDY    20  20  99 E6        30.01S FOG
TOMAHAWK       CLOUDY    19  18  93 CALM      30.03R
MERRILL        CLOUDY    21  19  93 CALM      30.03R
$$

WIZ013-073-271100-
NORTHEAST WISCONSIN

CITY           SKY/WX    TMP DP  RH WIND       PRES   REMARKS
IRON MOUNTAIN  CLOUDY    19  16  88 CALM      30.05R
MARINETTE      CLOUDY    18  16  93 CALM      30.07R
OCONTO         CLOUDY    22  20  94 CALM      30.07R
$$

WIZ017-030-035>037-045-271100-
CENTRAL WISCONSIN

CITY           SKY/WX    TMP DP  RH WIND       PRES   REMARKS
MEDFORD        CLOUDY    21  19  95 CALM      30.01S FOG
WAUSAU         CLOUDY    22  19  89 N3        30.02R
MOSINEE        CLOUDY    21  21 100 N5        30.03R
MARSHFIELD     CLOUDY    23  20  88 N8        30.03R FOG
WISC RAPIDS    CLOUDY    22  19  89 N6        30.04R
STEVENS POINT  CLOUDY    20  19  95 N5        30.03R
WAUPACA        CLOUDY    26  23  89 CALM      30.04R
SHAWANO        CLOUDY    25  21  87 E5        30.06R
CLINTONVILLE   CLOUDY    25  21  86 CALM      30.05R
$$

WIZ038-039-048-051-271100-
FOX VALLEY

CITY           SKY/WX    TMP DP  RH WIND       PRES   REMARKS
NWS GREEN BAY  CLOUDY    24  20  84 NE5       30.06R
APPLETON       CLOUDY    25  23  93 E5        30.04R
OSHKOSH        CLOUDY    25  20  81 NE3       30.02R
FOND DU LAC    CLOUDY    25  22  88 NE3       30.02R FOG
$$

WIZ022-050-052-271100-
EAST CENTRAL WISCONSIN

CITY           SKY/WX    TMP DP  RH WIND       PRES   REMARKS
STURGEON BAY   MOCLDY    19  16  86 NE5       30.08R
MANITOWOC      CLOUDY    25  19  78 E5        30.05R
SHEBOYGAN      CLOUDY    25  19  78 E7        30.03R
$$

LMZ563-521-522-541>543-271100-
LAKESHORE

STATION/POSITION TIME  TEMP    WIND        PRES    VSBY  WAVE
                       AIR SEA DIR/SP/G                  HT/PER
                 (UTC) (F)     (DEG/KT/KT) (MB)    (MI)  (FT/S)
SHEBOYGAN LKSHOR 1000   26      80/  7/  9 1018.4R
KEWAUNEE LKSHORE 1000   25      90/  3/  8 1017.0R
NORTHPORT PIER   1000   24     100/  6/  8 1019.0R
SISTER BAY LKSHO 1000   22        CALM       N/A
CHAMBERS ISLAND  1000   19      CALM  /  1 1019.0R
MENOMINEE LKSHOR 1000   13      20/  3     1019.2S
$$



USA.gov is the U.S. government's official web portal to all federal, state and local government web resources and services.